Regional Weather Roundup
Issued by NWS

Home | Current Version | Previous Version | Graphics & Text | Print | Product List | Glossary On
Versions: 1 2 3 4 5 6 7 8 9 10 11 12 13 14 15 16 17 18 19 20 21 22 23 24 25 26 27 28 29 30 31 32 33 34 35 36 37 38 39 40 41 42 43 44 45 46 47 48 49 50
000
ASUS43 KMKX 302113
RWRWI

WISCONSIN REGIONAL WEATHER ROUNDUP
NATIONAL WEATHER SERVICE MILWAUKEE/SULLIVAN WI
400 PM CDT SAT MAY 30 2015

NOTE: "FAIR" INDICATES FEW OR NO CLOUDS BELOW 12,000 FEET WITH NO
SIGNIFICANT WEATHER AND/OR OBSTRUCTIONS TO VISIBILITY.

WIZ001-002-006>008-014>016-023>028-302200-
NORTHWEST WISCONSIN

CITY           SKY/WX    TMP DP  RH WIND       PRES   REMARKS
SUPERIOR ARPT  SUNNY     53  35  50 E8        30.30S
ASHLAND        SUNNY     53  33  46 NE12      30.33R
HAYWARD        SUNNY     56  35  45 NE12      30.27S
SIREN          PTSUNNY   60  37  42 E5        30.26S
CUMBERLAND     PTSUNNY   55  37  50 NE9G16    30.25S
RICE LAKE      SUNNY     58  38  47 NE12G18   30.26S
CHETEK         MOSUNNY   58  41  52 N10G17    30.24F
LADYSMITH      MOSUNNY   58  41  53 N10G16    30.26S
EAU CLAIRE     PTSUNNY   60  42  51 N14G20    30.22R
MENOMONIE      PTSUNNY   60  42  52 NE10G17   30.24S
NEW RICHMOND   MOSUNNY   60  41  51 N9        30.24F
OSCEOLA        PTSUNNY   60  42  50 NE8       30.28R
$$

WIZ003>005-009-010-017-018-302200-
NORTH CENTRAL WISCONSIN

CITY           SKY/WX    TMP DP  RH WIND       PRES   REMARKS
MANITOWISH WTR SUNNY     50  33  51 NE10      30.26S
ARBOR VITAE    SUNNY     52  35  52 NE12G18   30.25S
WOODRUFF       SUNNY     52  35  52 NE12G18   30.25S
RHINELANDER    MOSUNNY   54  38  54 VRB7G21   30.24S
EAGLE RIVER    MOSUNNY   53  30  40 N14       30.24R
LAND O LAKES   MOSUNNY   53  29  40 NE9G18    30.26S
PHILLIPS       PTSUNNY   54  40  59 N12G21    30.25S
TOMAHAWK       PTSUNNY   54  39  56 N9G17     30.24S
MEDFORD        PTSUNNY   56  42  59 NE9G16    30.22R
MERRILL        PTSUNNY   57  42  57 NE14G22   30.22S
$$

WIZ029-030-035-036-043>047-302200-
CENTRAL WISCONSIN

CITY           SKY/WX    TMP DP  RH WIND       PRES   REMARKS
WAUSAU         CLOUDY    59  42  53 N10G17    30.19R
MOSINEE        CLOUDY    57  45  62 NE9       30.20S
MARSHFIELD     CLOUDY    61  43  51 NE14      30.19S
STEVENS POINT  CLOUDY    57  43  59 NE12G18   30.20S
WAUPACA        CLOUDY    59  47  64 N7        30.19S
WAUTOMA        NOT AVBL
WISC RAPIDS    CLOUDY    62  43  49 NE9       30.19F
CAMP DOUGLAS   NOT AVBL
$$

WIZ011>013-019>022-031-037>040-048>050-302200-
NORTHEAST WISCONSIN

CITY           SKY/WX    TMP DP  RH WIND       PRES   REMARKS
ANTIGO         CLOUDY    55  43  63 N15       30.21S
SHAWANO        CLOUDY    59  44  56 N15       30.21R
OCONTO         CLOUDY    54  42  64 NE14      30.21R
STURGEON BAY   CLOUDY    50  39  66 N18G24    30.23R
GREEN BAY      CLOUDY    54  45  71 NE17G25   30.20R
MANITOWOC      NOT AVBL
APPLETON       CLOUDY    54  45  71 NE10      30.19R
CLINTONVILLE   CLOUDY    55  43  62 NE12      30.20R
OSHKOSH        CLOUDY    55  45  68 NE14      30.17S
$$

WIZ032>034-041-042-053>061-302200-
SOUTHWEST WISCONSIN

CITY           SKY/WX    TMP DP  RH WIND       PRES   REMARKS
LA CROSSE      CLOUDY    63  51  65 N12G18    30.17S
SPARTA         CLOUDY    57  53  85 E8        30.18F
VIROQUA        CLOUDY    56  55  94 NE14G22   30.17S
BOSCOBEL       CLOUDY    58  50  75 E13G20    30.15R
PRAIRIE DU CHI CLOUDY    60  50  70 NE10G16   30.13F
PLATTEVILLE    CLOUDY    56  52  88 NE18      30.12R
$$

WIZ056-057-062-063-064-067-068-302200-
SOUTH CENTRAL WISCONSIN

CITY           SKY/WX    TMP DP  RH WIND       PRES   REMARKS
REEDSBURG      CLOUDY    56  46  70 NE13      30.17R
BARABOO/DELLS  CLOUDY    53  46  75 NE14G20   30.17S
LONE ROCK      CLOUDY    57  49  74 NE15G24   30.17R
MINERAL POINT  LGT RAIN  54  50  87 NE21G26   30.13R
MADISON        CLOUDY    53  47  79 NE20      30.15R
MIDDLETON      CLOUDY    53  50  88 NE14      30.16R
WATERTOWN      DRIZZLE  N/A N/A N/A NE9G17    30.14S
MONROE         CLOUDY    50  50 100 NE20G25   30.11R
JANESVILLE     DRIZZLE   52  48  87 NE14G22   30.12R
$$

WIZ051-052-058>065-066-070>072-302200-
SOUTHEAST WISCONSIN

CITY           SKY/WX    TMP DP  RH WIND       PRES   REMARKS
MILWAUKEE      LGT RAIN  46  43  89 N21G33    30.13R
WAUKESHA       CLOUDY    46  45  93 NE12G23   30.14S
MILWAUKEE/TIMM LGT RAIN  46  43  87 NE22G35   30.14S
RACINE         LGT RAIN  46  43  89 N25G37    30.13R
BURLINGTON     DRIZZLE   47  46  93 NE16G24   30.12R
KENOSHA        CLOUDY    48  45  89 N18G31    30.10R
FOND DU LAC    LGT RAIN  52  46  80 NE18G29   30.18R
SHEBOYGAN      CLOUDY    50  46  86 NE13      30.17R
WEST BEND      LGT RAIN  46  43  87 NE13      30.15S
JUNEAU         LGT RAIN  49  45  86 N15G29    30.17R
$$

LSZ147-162-302200-
LAKE SUPERIOR

STATION/POSITION TIME  TEMP    WIND        PRES    WAVE
                       AIR SEA DIR/SP/G            HT/PER
                 (UTC) (F)     (DEG/KT/KT) (MB)    (FT/S)
W MID LAKE BUOY  1950   39 37  150/  4/  4   N/A     1/ 4
DEVILS ISLAND    2000   44     130/ 13/ 15   N/A
PORT WING        2040   48      30/ 13/ 14   N/A
SAXON HARBOR     2000   46      40/  9/ 12   N/A
$$

LMZ867-665-643>646-302200-
LAKE MICHIGAN

STATION/POSITION TIME  TEMP    WIND        PRES    WAVE
                       AIR SEA DIR/SP/G            HT/PER
                 (UTC) (F)     (DEG/KT/KT) (MB)    (FT/S)
CHAMBERS ISLAND  2000   49     360/ 20/ 23   N/A
N MID LAKE BUOY  1950   43 37  330/ 12/ 14   N/A     2/ 4
SISTER BAY       2003   50     360/ 22/ 33   N/A
ALGOMA LAKESHORE 2038           30/ 12/ 18   N/A
KEWAUNEE LAKESHO 2000   49      30/ 10/ 14   N/A
SHEBOYGAN LAKESH 2000   45      20/ 19/ 21   N/A
ATWATER BUOY     2000   46      20/ 23/ 31   N/A
MILWAUKEE LAKESH 2000   46      10/ 22/ 29   N/A
S MID LAKE BUOY  1950   42 38  360/ 23/ 27   N/A     6/ 6
KENOSHA   LAKESH 2000   46      10/ 31/ 39   N/A
$$

TC  - TEMPERATURE IN CELSIUS
VSB - VISIBILITY IN STATUTE MILES
WCI - WIND CHILL INDEX
HX  - HEAT INDEX



USA.gov is the U.S. government's official web portal to all federal, state and local government web resources and services.